Sct Santiago — V7NF7 — position and weather

sailwx.info

Track history (hours):
 
Tides and Currents Weather Stations Pressure Air Temp Water Temp Dewpoint Dewpoint Depression Visibility Wind Speed Wind Dir Waves Ship Positions

Sct Santiago

Last reported at 2014-Jul-22 06:33 UTC. Time now 2014-Jul-22 07:20 UTC.
Position N 22°28' E 113°52'.

Length 294 m; draft 13.1 m.

Type: Cargo ship. MMSI: 538002953.

Date/timePositionNaut miles runAvg speedWind from/ knotsBaromVisibWave heightAir tempDewpointWater temp
2014-Jul-22 06:33N 22°28' E 113°52'0 0.0
2014-Jul-22 05:33N 22°28' E 113°52'1 0.7
2014-Jul-22 04:34N 22°27' E 113°53'9 8.0
2014-Jul-22 03:23N 22°21' E 113°60'9 8.9
2014-Jul-22 02:25N 22°15' E 114°07'10 9.3
2014-Jul-22 01:22N 22°07' E 114°13'15 3.5
2014-Jul-21 21:12N 22°07' E 113°57'5 6.5
2014-Jul-21 20:29N 22°06' E 113°53'1 7.6
2014-Jul-21 20:18N 22°06' E 113°51'911.9
2014-Jul-21 19:33N 22°15' E 113°49'7 6.9
2014-Jul-21 18:33N 22°21' E 113°47'9 8.9
2014-Jul-21 17:33N 22°30' E 113°45'10 8.4
2014-Jul-21 16:26N 22°39' E 113°41'5 0.2
2014-Jul-20 12:04N 22°34' E 113°43'714.5
2014-Jul-20 11:34N 22°27' E 113°45'1414.1
2014-Jul-20 10:33N 22°13' E 113°49'9 8.9
2014-Jul-20 09:33N 22°06' E 113°54'0 0.0
2014-Jul-20 05:15N 22°06' E 113°54'0 0.0
2014-Jul-20 04:33N 22°06' E 113°54'0 0.1
2014-Jul-20 03:33N 22°06' E 113°54'0 0.2
2014-Jul-20 02:33N 22°06' E 113°55'0 0.1
2014-Jul-20 01:21N 22°06' E 113°55'0 0.1
2014-Jul-20 00:21N 22°06' E 113°55'0 0.0
2014-Jul-19 23:27N 22°06' E 113°55'0 0.1
2014-Jul-19 22:33N 22°06' E 113°55'0 0.1
2014-Jul-19 21:33N 22°06' E 113°55'0 0.1
2014-Jul-19 20:27N 22°06' E 113°55'0 0.1
2014-Jul-19 19:33N 22°06' E 113°54'0 0.1
2014-Jul-19 18:33N 22°06' E 113°54'0 0.0
2014-Jul-19 17:27N 22°06' E 113°54'0 0.0
2014-Jul-19 16:27N 22°06' E 113°54'0 0.0
2014-Jul-19 15:33N 22°06' E 113°54'0 0.1
2014-Jul-19 13:33N 22°06' E 113°55'9 8.9
2014-Jul-19 12:31N 22°09' E 114°04'11 0.6
2014-Jul-18 17:16N 22°20' E 114°07'  
2014-Jul-15 10:33N 22°20' E 114°07'0 0.0
2014-Jul-15 00:22N 22°20' E 114°07'15 7.9
2014-Jul-14 22:31N 22°26' E 113°53'3 0.6
2014-Jul-14 17:22N 22°29' E 113°52'0 0.0
2014-Jul-14 15:31N 22°29' E 113°52'0 0.0
2014-Jul-14 14:22N 22°29' E 113°52'0 0.0
2014-Jul-14 12:09N 22°29' E 113°52'0 0.0
2014-Jul-14 10:09N 22°29' E 113°52'0 0.0
2014-Jul-14 09:21N 22°29' E 113°52'0 0.0
2014-Jul-14 08:33N 22°29' E 113°52'0 0.0
2014-Jul-14 07:09N 22°29' E 113°52'0 0.0
2014-Jul-14 06:21N 22°29' E 113°52'1 0.4
2014-Jul-14 03:33N 22°28' E 113°52'8 7.3
2014-Jul-14 02:25N 22°21' E 113°57'  
Track history (hours):
 
Tides and Currents Weather Stations Pressure Air Temp Water Temp Dewpoint Dewpoint Depression Visibility Wind Speed Wind Dir Waves Ship Positions

Sct Santiago

Last reported at 2014-Jul-22 06:33 UTC. Time now 2014-Jul-22 07:20 UTC.
Position N 22°28' E 113°52'.

Length 294 m; draft 13.1 m.

Type: Cargo ship. MMSI: 538002953.

Date/timePositionNaut miles runAvg speedWind from/ knotsBaromVisibWave heightAir tempDewpointWater temp
2014-Jul-22 06:33N 22°28' E 113°52'0 0.0
2014-Jul-22 05:33N 22°28' E 113°52'1 0.7
2014-Jul-22 04:34N 22°27' E 113°53'9 8.0
2014-Jul-22 03:23N 22°21' E 113°60'9 8.9
2014-Jul-22 02:25N 22°15' E 114°07'10 9.3
2014-Jul-22 01:22N 22°07' E 114°13'15 3.5
2014-Jul-21 21:12N 22°07' E 113°57'5 6.5
2014-Jul-21 20:29N 22°06' E 113°53'1 7.6
2014-Jul-21 20:18N 22°06' E 113°51'911.9
2014-Jul-21 19:33N 22°15' E 113°49'7 6.9
2014-Jul-21 18:33N 22°21' E 113°47'9 8.9
2014-Jul-21 17:33N 22°30' E 113°45'10 8.4
2014-Jul-21 16:26N 22°39' E 113°41'5 0.2
2014-Jul-20 12:04N 22°34' E 113°43'714.5
2014-Jul-20 11:34N 22°27' E 113°45'1414.1
2014-Jul-20 10:33N 22°13' E 113°49'9 8.9
2014-Jul-20 09:33N 22°06' E 113°54'0 0.0
2014-Jul-20 05:15N 22°06' E 113°54'0 0.0
2014-Jul-20 04:33N 22°06' E 113°54'0 0.1
2014-Jul-20 03:33N 22°06' E 113°54'0 0.2
2014-Jul-20 02:33N 22°06' E 113°55'0 0.1
2014-Jul-20 01:21N 22°06' E 113°55'0 0.1
2014-Jul-20 00:21N 22°06' E 113°55'0 0.0
2014-Jul-19 23:27N 22°06' E 113°55'0 0.1
2014-Jul-19 22:33N 22°06' E 113°55'0 0.1
2014-Jul-19 21:33N 22°06' E 113°55'0 0.1
2014-Jul-19 20:27N 22°06' E 113°55'0 0.1
2014-Jul-19 19:33N 22°06' E 113°54'0 0.1
2014-Jul-19 18:33N 22°06' E 113°54'0 0.0
2014-Jul-19 17:27N 22°06' E 113°54'0 0.0
2014-Jul-19 16:27N 22°06' E 113°54'0 0.0
2014-Jul-19 15:33N 22°06' E 113°54'0 0.1
2014-Jul-19 13:33N 22°06' E 113°55'9 8.9
2014-Jul-19 12:31N 22°09' E 114°04'11 0.6
2014-Jul-18 17:16N 22°20' E 114°07'  
2014-Jul-15 10:33N 22°20' E 114°07'0 0.0
2014-Jul-15 00:22N 22°20' E 114°07'15 7.9
2014-Jul-14 22:31N 22°26' E 113°53'3 0.6
2014-Jul-14 17:22N 22°29' E 113°52'0 0.0
2014-Jul-14 15:31N 22°29' E 113°52'0 0.0
2014-Jul-14 14:22N 22°29' E 113°52'0 0.0
2014-Jul-14 12:09N 22°29' E 113°52'0 0.0
2014-Jul-14 10:09N 22°29' E 113°52'0 0.0
2014-Jul-14 09:21N 22°29' E 113°52'0 0.0
2014-Jul-14 08:33N 22°29' E 113°52'0 0.0
2014-Jul-14 07:09N 22°29' E 113°52'0 0.0
2014-Jul-14 06:21N 22°29' E 113°52'1 0.4
2014-Jul-14 03:33N 22°28' E 113°52'8 7.3
2014-Jul-14 02:25N 22°21' E 113°57'  

Dump ship's entire track history